Flag for Germany Weather past 2 weeks in Magdeburg, Saxony-Anhalt, Germany

Now
57 °F

Fog.


Feels Like: 57 °F
Forecast: 54 / 69 °F
Wind: 1 mph from Northwest

Location: Magdeburg

Current Time: Oct 1, 2014 at 10:50:15 PM

Latest Report: Oct 1, 2014 at 10:00 PM


Visibility: 2 mi

Pressure: 30.35 "Hg

Humidity: 94%

Dew point: 56 °F

Location of MagdeburgLocation

Historic Weather in Magdeburg — Graph

°F

Magdeburg temperature yesterday

Maximum temperature yesterday: 69 °F (at 3:00 PM)
Minimum temperature yesterday: 60 °F (at 11:00 PM)
Average temperature yesterday: 64 °F

Past Weeks' High & Low Weather Summary

 TemperatureHumidityPressure
High77 °F (Sep 29, 3:00 PM)98% (Sep 20, 3:00 AM)30.39 "Hg (Sep 20, 3:00 AM)
Low44 °F (Sep 28, 6:00 AM)43% (Sep 17, 6:00 PM)29.83 "Hg (Sep 24, 7:00 PM)
Average60 °F80%30.08 "Hg
* Reported Sep 16 9:00 PM — Oct 1 9:00 PM, Magdeburg, Weather by CustomWeather, © 2014

Note: Actual official high and low records may vary slightly from our data, if they occured in-between our weather recording intervals... More about our weather records

Advertising

Magdeburg weather history for previous 24 hours

 ConditionsComfort  
Time TempWeatherWind HumidityBarometerVisibility
9:00 PM
Oct 1
60 °FFog.No wind90%30.34 "Hg4 mi
8:00 PM61 °FPassing clouds.1 mph86%30.33 "Hg5 mi
7:00 PM64 °FPassing clouds.1 mph78%30.32 "Hg6 mi
6:00 PM66 °FPartly sunny.2 mph71%30.31 "Hg9 mi
4:00 PM69 °FOvercast.2 mph59%30.30 "Hg10 mi
3:00 PM69 °FPartly sunny.1 mph60%30.31 "Hg5 mi
2:00 PM70 °FOvercast.2 mph60%30.32 "Hg4 mi
1:00 PM67 °FOvercast.2 mph67%30.32 "Hg4 mi
12:00 PM66 °FHaze.2 mph72%30.33 "Hg3 mi
11:00 AM64 °FSunny.2 mph79%30.33 "Hg3 mi
10:00 AM60 °FFog.1 mph86%30.32 "Hg3 mi
9:00 AM54 °FFog.1 mph96%30.32 "Hg2 mi
8:00 AM51 °FFog.1 mph97%30.31 "Hg1 mi
7:00 AM52 °FFog.1 mph97%30.31 "Hg1 mi
6:00 AM53 °FFog.1 mph97%30.31 "Hg1 mi
5:00 AM53 °FClear.2 mph97%30.30 "Hg1 mi
4:00 AM54 °FClear.1 mph96%30.30 "Hg1 mi
3:00 AM54 °FClear.2 mph97%30.30 "Hg1 mi
2:00 AM56 °FFog.2 mph97%30.30 "Hg2 mi
1:00 AM56 °FFog.1 mph95%30.29 "Hg1 mi
12:00 AM57 °FFog.1 mph92%30.29 "Hg2 mi
11:00 PM
Sep 30
60 °FFog.2 mph85%30.29 "Hg3 mi
10:00 PM62 °FFog.1 mph87%30.28 "Hg3 mi
Weather by CustomWeather, © 2014

See weather overviewHow to use our weather pages